Hourly Weather Bobo-Dioulasso

Today, 19 September, Saturday

Time Temperature Precipitation Wind Pressure Humidity
00:00 +24°C° 0 mm 1 mps 725 mmHg 94%
01:00 +24°C° 0 mm 1 mps 724 mmHg 94%
02:00 +24°C° 0 mm 1 mps 724 mmHg 95%
03:00 +23°C° 0 mm 1 mps 723 mmHg 95%
04:00 +21°C° 0 mm 0 mps 723 mmHg 95%
05:00 +21°C° 0 mm 0 mps 723 mmHg 95%
06:00 +21°C° 0 mm 0 mps 724 mmHg 94%
07:00 +23°C° 0 mm 0 mps 724 mmHg 89%
08:00 +24°C° 0 mm 0 mps 725 mmHg 84%
09:00 +26°C° 0 mm 0 mps 725 mmHg 79%
10:00 +27°C° 0 mm 0 mps 725 mmHg 73%
11:00 +31°C° 0 mm 1 mps 725 mmHg 67%
12:00 +32°C° 0 mm 1 mps 725 mmHg 61%
13:00 +32°C° 0 mm 1 mps 724 mmHg 60%
14:00 +32°C° 0 mm 1 mps 723 mmHg 60%
15:00 +32°C° 0 mm 1 mps 722 mmHg 60%
16:00 +31°C° 0.1 mm 1 mps 722 mmHg 66%
17:00 +30°C° 0.1 mm 1 mps 722 mmHg 71%
18:00 +29°C° 0.1 mm 1 mps 722 mmHg 77%
19:00 +28°C° 0.1 mm 1 mps 723 mmHg 78%
20:00 +28°C° 0.1 mm 1 mps 723 mmHg 79%
21:00 +27°C° 0.1 mm 1 mps 724 mmHg 80%
22:00 +27°C° 0 mm 1 mps 724 mmHg 82%
23:00 +26°C° 0 mm 1 mps 723 mmHg 83%

Tomorrow, 20 September, Sunday

Time Temperature Precipitation Wind Pressure Humidity
00:00 +26°C° 0 mm 1 mps 723 mmHg 85%
01:00 +26°C° 0 mm 2 mps 723 mmHg 86%
02:00 +25°C° 0 mm 2 mps 722 mmHg 88%
03:00 +25°C° 0 mm 2 mps 722 mmHg 89%
04:00 +25°C° 0 mm 2 mps 722 mmHg 90%
05:00 +25°C° 0 mm 1 mps 722 mmHg 90%
06:00 +24°C° 0 mm 1 mps 722 mmHg 91%
07:00 +26°C° 0 mm 2 mps 723 mmHg 87%
08:00 +27°C° 0 mm 2 mps 723 mmHg 82%
09:00 +29°C° 0 mm 3 mps 724 mmHg 78%
10:00 +30°C° 0.1 mm 3 mps 724 mmHg 73%
11:00 +33°C° 0.1 mm 3 mps 723 mmHg 68%
12:00 +34°C° 0.1 mm 3 mps 723 mmHg 62%
13:00 +34°C° 0.6 mm 3 mps 723 mmHg 62%
14:00 +34°C° 0.6 mm 3 mps 722 mmHg 61%
15:00 +34°C° 0.6 mm 2 mps 721 mmHg 60%
16:00 +32°C° 0.7 mm 2 mps 721 mmHg 67%
17:00 +30°C° 0.7 mm 2 mps 721 mmHg 74%
18:00 +29°C° 0.7 mm 1 mps 721 mmHg 82%
19:00 +28°C° 0.1 mm 2 mps 721 mmHg 84%
20:00 +27°C° 0.1 mm 2 mps 722 mmHg 86%
21:00 +26°C° 0.1 mm 2 mps 722 mmHg 89%
22:00 +26°C° 0.1 mm 3 mps 722 mmHg 89%
23:00 +26°C° 0.1 mm 3 mps 722 mmHg 90%

Day after tomorrow, 21 September, Monday

Time Temperature Precipitation Wind Pressure Humidity
00:00 +26°C° 0.1 mm 3 mps 722 mmHg 90%
01:00 +25°C° 0 mm 3 mps 722 mmHg 91%
02:00 +25°C° 0 mm 3 mps 722 mmHg 91%
03:00 +25°C° 0 mm 4 mps 722 mmHg 91%
04:00 +25°C° 0.2 mm 3 mps 722 mmHg 93%
05:00 +24°C° 0.2 mm 3 mps 723 mmHg 94%
06:00 +24°C° 0.2 mm 2 mps 723 mmHg 95%
07:00 +25°C° 0 mm 3 mps 723 mmHg 91%
08:00 +26°C° 0 mm 3 mps 724 mmHg 86%
09:00 +27°C° 0 mm 4 mps 724 mmHg 82%
10:00 +28°C° 0 mm 4 mps 724 mmHg 78%
11:00 +29°C° 0 mm 4 mps 724 mmHg 74%
12:00 +30°C° 0 mm 4 mps 724 mmHg 70%
13:00 +32°C° 0 mm 4 mps 723 mmHg 69%
14:00 +31°C° 0 mm 3 mps 723 mmHg 68%
15:00 +33°C° 0 mm 3 mps 722 mmHg 67%
16:00 +30°C° 0.2 mm 2 mps 722 mmHg 73%
17:00 +29°C° 0.2 mm 2 mps 722 mmHg 79%
18:00 +28°C° 0.2 mm 1 mps 722 mmHg 85%
19:00 +27°C° 0.1 mm 2 mps 722 mmHg 87%
20:00 +27°C° 0.1 mm 2 mps 723 mmHg 89%
21:00 +26°C° 0.1 mm 2 mps 723 mmHg 92%
22:00 +26°C° 0.1 mm 2 mps 723 mmHg 92%
23:00 +25°C° 0.1 mm 2 mps 723 mmHg 93%

22 September, Tuesday

Time Temperature Precipitation Wind Pressure Humidity
00:00 +25°C° 0.1 mm 2 mps 723 mmHg 94%
01:00 +25°C° 0.2 mm 2 mps 723 mmHg 94%
02:00 +24°C° 0.2 mm 2 mps 722 mmHg 95%
03:00 +24°C° 0.2 mm 2 mps 722 mmHg 95%
04:00 +24°C° 0 mm 2 mps 722 mmHg 96%
05:00 +24°C° 0 mm 3 mps 723 mmHg 96%
06:00 +24°C° 0 mm 3 mps 723 mmHg 96%
07:00 +25°C° 0.2 mm 3 mps 723 mmHg 92%
08:00 +26°C° 0.2 mm 3 mps 724 mmHg 88%
09:00 +27°C° 0.2 mm 3 mps 725 mmHg 84%
10:00 +29°C° 0.1 mm 3 mps 724 mmHg 78%
11:00 +30°C° 0.1 mm 3 mps 724 mmHg 72%
12:00 +33°C° 0.1 mm 3 mps 724 mmHg 67%
13:00 +32°C° 0.1 mm 2 mps 723 mmHg 64%
14:00 +32°C° 0.1 mm 2 mps 723 mmHg 61%
15:00 +32°C° 0.1 mm 1 mps 722 mmHg 59%
16:00 +31°C° 1.4 mm 1 mps 722 mmHg 67%
17:00 +29°C° 1.4 mm 1 mps 722 mmHg 74%
18:00 +28°C° 1.4 mm 1 mps 722 mmHg 82%
19:00 +27°C° 0.8 mm 1 mps 723 mmHg 84%
20:00 +27°C° 0.8 mm 1 mps 723 mmHg 85%
21:00 +26°C° 0.8 mm 1 mps 724 mmHg 86%
22:00 +26°C° 0 mm 1 mps 724 mmHg 87%
23:00 +25°C° 0 mm 1 mps 724 mmHg 88%

23 September, Wednesday

Time Temperature Precipitation Wind Pressure Humidity
00:00 +25°C° 0 mm 2 mps 724 mmHg 89%
01:00 +25°C° 0 mm 2 mps 723 mmHg 89%
02:00 +25°C° 0 mm 2 mps 723 mmHg 90%
03:00 +25°C° 0 mm 2 mps 723 mmHg 90%
04:00 +25°C° 0.5 mm 2 mps 723 mmHg 92%
05:00 +24°C° 0.5 mm 2 mps 723 mmHg 93%
06:00 +24°C° 0.5 mm 1 mps 723 mmHg 95%
07:00 +24°C° 2 mm 1 mps 724 mmHg 94%
08:00 +24°C° 2 mm 1 mps 724 mmHg 94%
09:00 +24°C° 2 mm 1 mps 725 mmHg 93%
10:00 +25°C° 0 mm 1 mps 724 mmHg 90%
11:00 +26°C° 0 mm 2 mps 724 mmHg 86%
12:00 +27°C° 0 mm 2 mps 724 mmHg 82%
13:00 +28°C° 0.1 mm 2 mps 723 mmHg 80%
14:00 +28°C° 0.1 mm 2 mps 723 mmHg 78%
15:00 +29°C° 0.1 mm 1 mps 722 mmHg 76%
16:00 +28°C° 0.8 mm 1 mps 722 mmHg 79%
17:00 +27°C° 0.8 mm 1 mps 722 mmHg 82%
18:00 +26°C° 0.8 mm 2 mps 722 mmHg 85%
19:00 +26°C° 0 mm 1 mps 722 mmHg 86%
20:00 +25°C° 0 mm 1 mps 722 mmHg 86%
21:00 +23°C° 0 mm 0 mps 722 mmHg 86%
22:00 +23°C° 0 mm 0 mps 723 mmHg 87%
23:00 +22°C° 0 mm 0 mps 723 mmHg 88%

24 September, Thursday

Time Temperature Precipitation Wind Pressure Humidity
00:00 +22°C° 0 mm 0 mps 724 mmHg 89%
01:00 +22°C° 0 mm 0 mps 723 mmHg 90%
02:00 +22°C° 0 mm 0 mps 723 mmHg 90%
03:00 +21°C° 0 mm 0 mps 723 mmHg 91%
04:00 +21°C° 0 mm 0 mps 723 mmHg 92%
05:00 +21°C° 0 mm 0 mps 723 mmHg 92%
06:00 +23°C° 0 mm 1 mps 723 mmHg 93%
07:00 +24°C° 0 mm 1 mps 723 mmHg 89%
08:00 +26°C° 0 mm 2 mps 724 mmHg 86%
09:00 +27°C° 0 mm 3 mps 724 mmHg 82%
10:00 +29°C° 0 mm 3 mps 724 mmHg 77%
11:00 +30°C° 0 mm 3 mps 724 mmHg 73%
12:00 +31°C° 0 mm 3 mps 724 mmHg 68%
13:00 +31°C° 0 mm 3 mps 723 mmHg 67%
14:00 +31°C° 0 mm 3 mps 722 mmHg 66%
15:00 +33°C° 0 mm 3 mps 722 mmHg 65%
16:00 +30°C° 0 mm 2 mps 722 mmHg 69%
17:00 +29°C° 0 mm 1 mps 722 mmHg 74%
18:00 +28°C° 0 mm 1 mps 722 mmHg 79%
19:00 +28°C° 0 mm 1 mps 722 mmHg 81%
20:00 +25°C° 0 mm 0 mps 723 mmHg 82%
21:00 +24°C° 0 mm 0 mps 723 mmHg 84%
22:00 +26°C° 0.6 mm 1 mps 723 mmHg 86%
23:00 +25°C° 0.6 mm 1 mps 723 mmHg 88%
Show more